Hourly Data Report for October 02, 2014

All times are specified in Local Standard Time (LST). Add 1 hour to adjust for Daylight Saving Time where and when it is observed.

BAKER LAKE A
NUNAVUT

64°17'56.000" N
96°04'40.000" W
18.60 m
2300503
71926
YBK

Download Data

Hourly Data (October 2014)
Hourly Data Report for October 2, 2014
Temp Definition
°C
Dew Point Temp Definition
°C
Rel Hum Definition
%
Wind Dir Definition
10's deg

Wind Spd Definition
km/h
Visibility Definition
km
Stn Press Definition
kPa
Hmdx Definition


Wind Chill Definition


Weather Definition


TIME
00:00 Legend Double Dagger -3.3 -6.4 79 6 32 24.1 101.03   -11 Cloudy
01:00 Legend Double Dagger -3.3 -6.4 79 6 24 24.1 100.99   -10 LegendNANA
02:00 Legend Double Dagger -3.6 -7.4 75 6 25 24.1 100.94   -11 LegendNANA
03:00 Legend Double Dagger -4.0 -8.0 74 4 29 24.1 100.89   -12 Cloudy
04:00 Legend Double Dagger -4.4 -7.5 79 4 24 24.1 100.86   -11 LegendNANA
05:00 Legend Double Dagger -4.5 -7.6 79 4 23 24.1 100.84   -11 LegendNANA
06:00 Legend Double Dagger -4.4 -7.5 79 4 25 24.1 100.84   -12 Cloudy
07:00 Legend Double Dagger -4.5 -8.3 75 5 27 32.2 100.85   -12 LegendNANA
08:00 Legend Double Dagger -4.5 -8.1 76 4 27 32.2 100.85   -12 LegendNANA
09:00 Legend Double Dagger -4.3 -7.9 76 3 19 32.2 100.83   -10 Cloudy
10:00 Legend Double Dagger -4.0 -8.0 74 4 20 32.2 100.81   -10 LegendNANA
11:00 Legend Double Dagger -3.9 -7.9 74 4 21 32.2 100.77   -10 LegendNANA
12:00 Legend Double Dagger -4.0 -8.2 73 3 23 32.2 100.73   -11 Mainly Clear
13:00 Legend Double Dagger -4.0 -8.2 73 2 22 32.2 100.70   -11 LegendNANA
14:00 Legend Double Dagger -4.0 -7.8 75 2 23 32.2 100.70   -11 LegendNANA
15:00 Legend Double Dagger -4.1 -8.1 74 1 25 32.2 100.70   -11 Cloudy
16:00 Legend Double Dagger -4.3 -8.4 73 2 31 32.2 100.75   -12 LegendNANA
17:00 Legend Double Dagger -4.5 -8.3 75 1 26 32.2 100.77   -12 LegendNANA
18:00 Legend Double Dagger -4.6 -8.6 74 2 32 32.2 100.79   -13 Cloudy
19:00 Legend Double Dagger -4.4 -8.0 76 2 28 24.1 100.83   -12 LegendNANA
20:00 Legend Double Dagger -4.3 -7.4 79 1 23 24.1 100.82   -11 LegendNANA
21:00 Legend Double Dagger -5.0 -8.4 77 1 22 24.1 100.85   -12 Mostly Cloudy
22:00 Legend Double Dagger -4.8 -8.1 78 1 19 24.1 100.85   -11 LegendNANA
23:00 Legend Double Dagger -4.5 -7.9 77 36 22 24.1 100.88   -11 LegendNANA

Notes on Data Quality.

Legend

  • E = Estimated
  • M = Missing
  • NA = Not Available
  • ‡ = Partner data that is not subject to review by the National Climate Archives
Date modified: